THYACT EDDM-EDDG

Flight info

Callsign THYACT
Flight time N/A
Altitude 32000
Route INPUD3Q/08L INPUD Y102 TESDU DCT AMETU T852 EKSAK/N0384F260 T852 KULIX/N0374F240 T842 ADEMI/N0365F230 M170 HMM HMM1A
Aircraft A320/M-SDE3FGHIRWY/LB1

Departure

Time N/A
Airport Munich Airport (EDDM)

Arrival

Time 2026-04-27 16:43
Airport Münster Osnabrück Airport (EDDG)
Time Latitude Longitude Altitude Speed Heading
2026-04-27 16:33 51.89454 7.50938 4989 ft 267 kts 287°
2026-04-27 16:33 51.89991 7.48095 4990 ft 267 kts 287°
2026-04-27 16:33 51.90534 7.45220 4989 ft 267 kts 287°
2026-04-27 16:33 51.91073 7.42343 4990 ft 267 kts 287°
2026-04-27 16:34 51.91663 7.39489 4985 ft 267 kts 296°
2026-04-27 16:34 51.92696 7.36997 4986 ft 267 kts 307°
2026-04-27 16:34 51.93846 7.34624 4856 ft 267 kts 308°
2026-04-27 16:34 51.94998 7.32270 4593 ft 263 kts 309°
2026-04-27 16:35 51.96113 7.29962 4324 ft 253 kts 308°
2026-04-27 16:35 51.97326 7.28084 4066 ft 234 kts 333°
2026-04-27 16:35 52.00155 7.28355 3565 ft 200 kts 37°
2026-04-27 16:36 52.01200 7.29755 3313 ft 190 kts 43°
2026-04-27 16:36 52.02143 7.31137 3077 ft 180 kts 43°
2026-04-27 16:36 52.03040 7.32480 3007 ft 175 kts 43°
2026-04-27 16:36 52.03901 7.33786 3015 ft 164 kts 44°
2026-04-27 16:37 52.04724 7.35037 2994 ft 160 kts 44°
2026-04-27 16:37 52.05535 7.36270 3004 ft 159 kts 44°
2026-04-27 16:37 52.06232 7.37635 2995 ft 157 kts 62°
2026-04-27 16:37 52.06850 7.39101 2998 ft 158 kts 50°
2026-04-27 16:38 52.07418 7.40634 3000 ft 159 kts 65°
2026-04-27 16:38 52.07821 7.42207 2993 ft 142 kts 68°
2026-04-27 16:38 52.08147 7.43612 2991 ft 130 kts 69°
2026-04-27 16:38 52.08449 7.44966 2933 ft 125 kts 70°
2026-04-27 16:39 52.08766 7.46418 2819 ft 148 kts 70°
2026-04-27 16:39 52.09118 7.48046 2626 ft 154 kts 70°
2026-04-27 16:39 52.09469 7.49685 2439 ft 154 kts 69°
2026-04-27 16:39 52.09820 7.51325 2227 ft 153 kts 69°
2026-04-27 16:40 52.10170 7.52967 2020 ft 154 kts 69°
2026-04-27 16:40 52.10521 7.54614 1794 ft 153 kts 69°
2026-04-27 16:40 52.10867 7.56242 1585 ft 145 kts 68°
2026-04-27 16:40 52.11168 7.57662 1399 ft 123 kts 69°
2026-04-27 16:41 52.11441 7.58942 1241 ft 118 kts 68°
2026-04-27 16:41 52.11705 7.60183 1084 ft 115 kts 68°
2026-04-27 16:41 52.11964 7.61401 920 ft 114 kts 68°
2026-04-27 16:41 52.12202 7.62629 784 ft 113 kts 70°
2026-04-27 16:42 52.12469 7.63840 621 ft 113 kts 68°
2026-04-27 16:42 52.12723 7.65046 482 ft 112 kts 69°
2026-04-27 16:42 52.12991 7.66248 331 ft 114 kts 70°
2026-04-27 16:42 52.13237 7.67448 180 ft 113 kts 69°
2026-04-27 16:43 52.13470 7.68548 167 ft 75 kts 70°
2026-04-27 16:43 52.13582 7.69050 170 ft 39 kts 70°
2026-04-27 16:43 52.13670 7.69457 172 ft 37 kts 71°
2026-04-27 16:43 52.13745 7.69806 169 ft 28 kts 71°
2026-04-27 16:44 52.13738 7.70001 164 ft 8 kts 135°
2026-04-27 16:44 52.13668 7.70031 165 ft 12 kts 192°
2026-04-27 16:44 52.13598 7.69937 165 ft 16 kts 244°
2026-04-27 16:44 52.13558 7.69750 167 ft 18 kts 251°
2026-04-27 16:45 52.13523 7.69581 167 ft 9 kts 252°
2026-04-27 16:45 52.13501 7.69473 167 ft 12 kts 250°
2026-04-27 16:45 52.13471 7.69333 168 ft 14 kts 249°
2026-04-27 16:45 52.13404 7.69239 165 ft 11 kts 173°
2026-04-27 16:46 52.13374 7.69253 165 ft 8 kts 163°
2026-04-27 16:46 52.13303 7.69293 166 ft 8 kts 160°
2026-04-27 16:46 52.13246 7.69331 167 ft 11 kts 158°
2026-04-27 16:46 52.13185 7.69320 168 ft 9 kts 190°
2026-04-27 16:47 52.13164 7.69314 168 ft 2 kts 189°
2026-04-27 16:47 52.13162 7.69314 168 ft 0 kts 189°